STARLINK-33988, 63938

Orbit data source: Space-Track

STARLINK-33988, 63938 is a payload satellite owned by SpaceX/Seattle (US) in LEO that was launched on Tue, 13 May 2025 UTC via an FALCON 9 launch vehicle from the Air Force Western Test Range (AFWTR). Payload-class satellites include a variety of spacecraft equipped with specific instruments for various scientific and technological missions. These include communications satellites like Starlink; space stations such as the ISS; scientific satellites like the Hubble; Earth observation satellites from companies like Planet Labs, Umbra, and HawkEye 360; GPS; miniature CubeSats for education and research; and military/defense satellites.

Loading next visibility...
Identifier
63938, 2025-098N
Orbit
LEO
Country
Flag of USUS
Related business
Manufacturer
SpaceX/Seattle
Mission
Operational Commercial Communications
Bus & Motor
STARLINK V2MO, Unknown motor
Mass
575 kg wet, ~530 kg dry
Launch date (UTC)
2025-05-13 (7 months ago)
Launch vehicle
FALCON 9
Launch site
Air Force Western Test Range (AFWTR)
Object type
Payload
Rocket body
Debris
Shape & HBR
Box + 2 Pan, 17.7 m
Radar Cross Section
36.964 m², Large (>1 m²)

Expand to show TLE details & history
Last TLE update: 20 hours ago

TLE from 20 hours ago
0 STARLINK-33988
1 63938U 25098N   25348.79087816  .00001340  00000-0  12007-3 0  9992
2 63938  70.0007 128.5900 0002875 273.1631  86.9199 14.98327964 33837
Epoch: 2025-12-14T18:58Z
TLE epoch observation values (Epoch: 2025-12-14T18:58:51.873Z)
Latitude
-0°
Longitude
120.17513°
Altitude
574.379 km
Speed
7.574 km/s
True Right ascension
08h 34m 21s
True Declination
0° 00' 00"
Sunlit
Object was in full shadow at epoch
Visualization orbit readout
Latitude
Unknown
Longitude
Unknown
Altitude
Unknown
Speed
Unknown
Apparent Right ascension
Unknown
Apparent Declination
Unknown
Sunlit
N/A
Visualization observer readout
Local Sidereal Time
13:24:37
Azimuth
Unknown
Elevation
Unknown
Doppler factor
Unknown
Orbital elements
Apogee altitude
572.008 km
Perigee altitude
568.013 km
Semi-major axis
6,948.147 km
Eccentricity
0.00029
Inclination
70.0007°
RAAN
128.59°
Arg. of periapsis
273.1631°
True anomaly
86.9528°
Mean anomaly
86.9199°
Eccentric anomaly
86.93635°
Mean motion
3.74748 °/min
Orbital period
96.06 mins
BSTAR
0.00012007
Loading maneuver chart data...
Computing Atmospheric mass density...
Loading historical data...
Loading historical data...
Loading historical data...
Loading historical data...
Loading historical data...
Loading historical data...
Loading historical data...

Documentation

Showing up to 5 results
|